Location: Unspecified
(0.0000°N, 0.0000°E)
Time: 05:50:29
(UTC+02:00)

Cosmos 1125 Rocket - Visible Passes

Search period start: 29 June 2016 00:00
Search period end: 09 July 2016 00:00
Orbit: 758 x 781 km, 74.0° (Epoch: 28 June)

Date Brightness Start Highest point End Pass type
(mag) Time Alt. Az. Time Alt. Az. Time Alt. Az.
06 Jul 5.9 22:56:47 17° NNW 22:56:47 17° NNW 22:58:04 10° NNW visible
07 Jul 4.2 22:18:08 47° N 22:18:08 47° N 22:21:57 10° N visible
08 Jul 3.5 21:35:53 16° S 21:40:04 57° ESE 21:45:15 10° NNE visible
